Location: Devargunta
(16.7631°N, 80.9077°E)
Time: 18:17:16
(UTC+00:00)

Landsat 5 - Pass Details

Date: 19 January 2021
Orbit: 528 x 654 km, 98.2° (Epoch: 27 February)

Event Time Altitude Azimuth Distance (km) Brightness Sun altitude
Rises 23:15:36 0° 172° (S) 2,964 7.3 -26.7°
Reaches altitude 10° 23:17:50 10° 175° (S) 2,053 6.4 -26.2°
Enters shadow 23:20:56 43° 190° (S) 911 4.3 -25.5°
